Year,Month,Day,Hour,Minute,Value (Times are PST for windgust in km/hr)
2019,06,19,00,00,9.60
2019,06,19,00,01,9.60
2019,06,19,00,02,11.30
2019,06,19,00,03,12.90
2019,06,19,00,04,12.90
2019,06,19,00,05,12.90
2019,06,19,00,06,12.90
2019,06,19,00,07,6.40
2019,06,19,00,08,11.30
2019,06,19,00,09,11.30
2019,06,19,00,10,9.60
2019,06,19,00,11,9.60
2019,06,19,00,12,14.50
2019,06,19,00,13,14.50
2019,06,19,00,14,9.60
2019,06,19,00,15,11.30
2019,06,19,00,16,9.60
2019,06,19,00,17,11.30
2019,06,19,00,18,12.90
2019,06,19,00,19,9.60
2019,06,19,00,20,9.60
2019,06,19,00,21,11.30
2019,06,19,00,22,8.10
2019,06,19,00,23,4.80
2019,06,19,00,24,6.40
2019,06,19,00,25,9.60
2019,06,19,00,26,9.60
2019,06,19,00,27,12.90
2019,06,19,00,28,11.30
2019,06,19,00,29,11.30
2019,06,19,00,30,11.30
2019,06,19,00,31,14.50
2019,06,19,00,32,14.50
2019,06,19,00,33,16.10
2019,06,19,00,34,11.30
2019,06,19,00,35,12.90
2019,06,19,00,36,16.10
2019,06,19,00,37,16.10
2019,06,19,00,38,12.90
2019,06,19,00,39,16.10
2019,06,19,00,40,17.70
2019,06,19,00,41,12.90
2019,06,19,00,42,11.30
2019,06,19,00,43,12.90
2019,06,19,00,44,12.90
2019,06,19,00,45,11.30
2019,06,19,00,46,12.90
2019,06,19,00,47,11.30
2019,06,19,00,48,16.10
2019,06,19,00,49,22.50
2019,06,19,00,50,19.30
2019,06,19,00,51,17.70
2019,06,19,00,52,16.10
2019,06,19,00,53,12.90
2019,06,19,00,54,12.90
2019,06,19,00,55,11.30
2019,06,19,00,56,11.30
2019,06,19,00,57,20.90
2019,06,19,00,58,16.10
2019,06,19,00,59,14.50
2019,06,19,01,00,9.60
2019,06,19,01,01,12.90
2019,06,19,01,02,16.10
2019,06,19,01,03,12.90
2019,06,19,01,04,17.70
2019,06,19,01,05,12.90
2019,06,19,01,06,14.50
2019,06,19,01,07,11.30
2019,06,19,01,08,11.30
2019,06,19,01,09,11.30
2019,06,19,01,10,11.30
2019,06,19,01,11,11.30
2019,06,19,01,12,8.10
2019,06,19,01,13,14.50
2019,06,19,01,14,17.70
2019,06,19,01,15,11.30
2019,06,19,01,16,17.70
2019,06,19,01,17,12.90
2019,06,19,01,18,14.50
2019,06,19,01,19,14.50
2019,06,19,01,20,12.90
2019,06,19,01,21,12.90
2019,06,19,01,22,11.30
2019,06,19,01,23,12.90
2019,06,19,01,24,12.90
2019,06,19,01,25,12.90
2019,06,19,01,26,6.40
2019,06,19,01,27,12.90
2019,06,19,01,28,14.50
2019,06,19,01,29,12.90
2019,06,19,01,30,6.40
2019,06,19,01,31,11.30
2019,06,19,01,32,11.30
2019,06,19,01,33,11.30
2019,06,19,01,34,6.40
2019,06,19,01,35,11.30
2019,06,19,01,36,11.30
2019,06,19,01,37,17.70
2019,06,19,01,38,16.10
2019,06,19,01,39,12.90
2019,06,19,01,40,6.40
2019,06,19,01,41,14.50
2019,06,19,01,42,14.50
2019,06,19,01,43,11.30
2019,06,19,01,44,19.30
2019,06,19,01,45,19.30
2019,06,19,01,46,16.10
2019,06,19,01,47,12.90
2019,06,19,01,48,16.10
2019,06,19,01,49,14.50
2019,06,19,01,50,17.70
2019,06,19,01,51,16.10
2019,06,19,01,52,16.10
2019,06,19,01,53,16.10
2019,06,19,01,54,20.90
2019,06,19,01,55,16.10
2019,06,19,01,56,12.90
2019,06,19,01,57,11.30
2019,06,19,01,58,17.70
2019,06,19,01,59,14.50
2019,06,19,02,00,14.50
2019,06,19,02,01,20.90
2019,06,19,02,02,19.30
2019,06,19,02,03,20.90
2019,06,19,02,04,14.50
2019,06,19,02,05,17.70
2019,06,19,02,06,14.50
2019,06,19,02,07,11.30
2019,06,19,02,08,16.10
2019,06,19,02,09,17.70
2019,06,19,02,10,12.90
2019,06,19,02,11,16.10
2019,06,19,02,12,9.60
2019,06,19,02,13,11.30
2019,06,19,02,14,14.50
2019,06,19,02,15,6.40
2019,06,19,02,16,11.30
2019,06,19,02,17,11.30
2019,06,19,02,18,9.60
2019,06,19,02,19,11.30
2019,06,19,02,20,11.30
2019,06,19,02,21,8.10
2019,06,19,02,22,9.60
2019,06,19,02,23,12.90
2019,06,19,02,24,14.50
2019,06,19,02,25,11.30
2019,06,19,02,26,9.60
2019,06,19,02,27,3.20
2019,06,19,02,28,9.60
2019,06,19,02,29,9.60
2019,06,19,02,30,11.30
2019,06,19,02,31,6.40
2019,06,19,02,32,9.60
2019,06,19,02,33,6.40
2019,06,19,02,34,12.90
2019,06,19,02,35,11.30
2019,06,19,02,36,6.40
2019,06,19,02,37,6.40
2019,06,19,02,38,8.10
2019,06,19,02,39,6.40
2019,06,19,02,40,6.40
2019,06,19,02,41,4.80
2019,06,19,02,42,6.40
2019,06,19,02,43,6.40
2019,06,19,02,44,3.20
2019,06,19,02,45,11.30
2019,06,19,02,46,6.40
2019,06,19,02,47,8.10
2019,06,19,02,48,4.80
2019,06,19,02,49,6.40
2019,06,19,02,50,9.60
2019,06,19,02,51,4.80
2019,06,19,02,52,4.80
2019,06,19,02,53,8.10
2019,06,19,02,54,8.10
2019,06,19,02,55,14.50
2019,06,19,02,56,12.90
2019,06,19,02,57,6.40
2019,06,19,02,58,12.90
2019,06,19,02,59,16.10
2019,06,19,03,00,12.90
2019,06,19,03,01,4.80
2019,06,19,03,02,6.40
2019,06,19,03,03,12.90
2019,06,19,03,04,11.30
2019,06,19,03,05,12.90
2019,06,19,03,06,9.60
2019,06,19,03,07,9.60
2019,06,19,03,08,11.30
2019,06,19,03,09,14.50
2019,06,19,03,10,9.60
2019,06,19,03,11,8.10
2019,06,19,03,12,6.40
2019,06,19,03,13,4.80
2019,06,19,03,14,9.60
2019,06,19,03,15,6.40
2019,06,19,03,16,6.40
2019,06,19,03,17,8.10
2019,06,19,03,18,6.40
2019,06,19,03,19,4.80
2019,06,19,03,20,6.40
2019,06,19,03,21,6.40
2019,06,19,03,22,12.90
2019,06,19,03,23,6.40
2019,06,19,03,24,6.40
2019,06,19,03,25,9.60
2019,06,19,03,26,6.40
2019,06,19,03,27,4.80
2019,06,19,03,28,12.90
2019,06,19,03,29,16.10
2019,06,19,03,30,14.50
2019,06,19,03,31,14.50
2019,06,19,03,32,9.60
2019,06,19,03,33,12.90
2019,06,19,03,34,14.50
2019,06,19,03,35,19.30
2019,06,19,03,36,14.50
2019,06,19,03,37,14.50
2019,06,19,03,38,8.10
2019,06,19,03,39,9.60
2019,06,19,03,40,8.10
2019,06,19,03,41,12.90
2019,06,19,03,42,4.80
2019,06,19,03,43,14.50
2019,06,19,03,44,14.50
2019,06,19,03,45,9.60
2019,06,19,03,46,6.40
2019,06,19,03,47,9.60
2019,06,19,03,48,9.60
2019,06,19,03,49,16.10
2019,06,19,03,50,12.90
2019,06,19,03,51,11.30
2019,06,19,03,52,6.40
2019,06,19,03,53,9.60
2019,06,19,03,54,17.70
2019,06,19,03,55,16.10
2019,06,19,03,56,12.90
2019,06,19,03,57,9.60
2019,06,19,03,58,4.80
2019,06,19,03,59,4.80
2019,06,19,04,00,6.40
2019,06,19,04,01,4.80
2019,06,19,04,02,6.40
2019,06,19,04,03,9.60
2019,06,19,04,04,8.10
2019,06,19,04,05,9.60
2019,06,19,04,06,6.40
2019,06,19,04,07,8.10
2019,06,19,04,08,6.40
2019,06,19,04,09,8.10
2019,06,19,04,10,6.40
2019,06,19,04,11,4.80
2019,06,19,04,12,8.10
2019,06,19,04,13,8.10
2019,06,19,04,14,6.40
2019,06,19,04,15,4.80
2019,06,19,04,16,3.20
2019,06,19,04,17,4.80
2019,06,19,04,18,4.80
2019,06,19,04,19,4.80
2019,06,19,04,20,3.20
2019,06,19,04,21,3.20
2019,06,19,04,22,4.80
2019,06,19,04,23,9.60
2019,06,19,04,24,4.80
2019,06,19,04,25,12.90
2019,06,19,04,26,12.90
2019,06,19,04,27,4.80
2019,06,19,04,28,3.20
2019,06,19,04,29,6.40
2019,06,19,04,30,6.40
2019,06,19,04,31,6.40
2019,06,19,04,32,4.80
2019,06,19,04,33,3.20
2019,06,19,04,34,4.80
2019,06,19,04,35,3.20
2019,06,19,04,36,4.80
2019,06,19,04,37,4.80
2019,06,19,04,38,8.10
2019,06,19,04,39,11.30
2019,06,19,04,40,11.30
2019,06,19,04,41,9.60
2019,06,19,04,42,4.80
2019,06,19,04,43,4.80
2019,06,19,04,44,3.20
2019,06,19,04,45,8.10
2019,06,19,04,46,17.70
2019,06,19,04,47,14.50
2019,06,19,04,48,6.40
2019,06,19,04,49,6.40
2019,06,19,04,50,4.80
2019,06,19,04,51,4.80
2019,06,19,04,52,3.20
2019,06,19,04,53,6.40
2019,06,19,04,54,9.60
2019,06,19,04,55,4.80
2019,06,19,04,56,3.20
2019,06,19,04,57,3.20
2019,06,19,04,58,3.20
2019,06,19,04,59,4.80
2019,06,19,05,00,8.10
2019,06,19,05,01,6.40
2019,06,19,05,02,3.20
2019,06,19,05,03,3.20
2019,06,19,05,04,3.20
2019,06,19,05,05,4.80
2019,06,19,05,06,8.10
2019,06,19,05,07,1.60
2019,06,19,05,08,3.20
2019,06,19,05,09,6.40
2019,06,19,05,10,8.10
2019,06,19,05,11,12.90
2019,06,19,05,12,14.50
2019,06,19,05,13,8.10
2019,06,19,05,14,9.60
2019,06,19,05,15,11.30
2019,06,19,05,16,17.70
2019,06,19,05,17,8.10
2019,06,19,05,18,6.40
2019,06,19,05,19,11.30
2019,06,19,05,20,9.60
2019,06,19,05,21,6.40
2019,06,19,05,22,11.30
2019,06,19,05,23,11.30
2019,06,19,05,24,9.60
2019,06,19,05,25,11.30
2019,06,19,05,26,6.40
2019,06,19,05,27,16.10
2019,06,19,05,28,9.60
2019,06,19,05,29,8.10
2019,06,19,05,30,12.90
2019,06,19,05,31,14.50
2019,06,19,05,32,8.10
2019,06,19,05,33,3.20
2019,06,19,05,34,6.40
2019,06,19,05,35,6.40
2019,06,19,05,36,9.60
2019,06,19,05,37,12.90
2019,06,19,05,38,16.10
2019,06,19,05,39,12.90
2019,06,19,05,40,8.10
2019,06,19,05,41,9.60
2019,06,19,05,42,9.60
2019,06,19,05,43,14.50
2019,06,19,05,44,14.50
2019,06,19,05,45,6.40
2019,06,19,05,46,9.60
2019,06,19,05,47,9.60
2019,06,19,05,48,6.40
2019,06,19,05,49,9.60
2019,06,19,05,50,6.40
2019,06,19,05,51,6.40
2019,06,19,05,52,6.40
2019,06,19,05,53,4.80
2019,06,19,05,54,12.90
2019,06,19,05,55,6.40
2019,06,19,05,56,4.80
2019,06,19,05,57,6.40
2019,06,19,05,58,6.40
2019,06,19,05,59,6.40
2019,06,19,06,00,6.40
2019,06,19,06,01,6.40
2019,06,19,06,02,6.40
2019,06,19,06,03,6.40
2019,06,19,06,04,6.40
2019,06,19,06,05,11.30
2019,06,19,06,06,8.10
2019,06,19,06,07,3.20
2019,06,19,06,08,3.20
2019,06,19,06,09,3.20
2019,06,19,06,10,3.20
2019,06,19,06,11,1.60
2019,06,19,06,12,3.20
2019,06,19,06,13,6.40
2019,06,19,06,14,6.40
2019,06,19,06,15,4.80
2019,06,19,06,16,1.60
2019,06,19,06,17,3.20
2019,06,19,06,18,3.20
2019,06,19,06,19,4.80
2019,06,19,06,20,4.80
2019,06,19,06,21,9.60
2019,06,19,06,22,9.60
2019,06,19,06,23,8.10
2019,06,19,06,24,8.10
2019,06,19,06,25,9.60
2019,06,19,06,26,6.40
2019,06,19,06,27,4.80
2019,06,19,06,28,6.40
2019,06,19,06,29,6.40
2019,06,19,06,30,4.80
2019,06,19,06,31,8.10
2019,06,19,06,32,12.90
2019,06,19,06,33,4.80
2019,06,19,06,34,3.20
2019,06,19,06,35,8.10
2019,06,19,06,36,6.40
2019,06,19,06,37,9.60
2019,06,19,06,38,3.20
2019,06,19,06,39,6.40
2019,06,19,06,40,4.80
2019,06,19,06,41,6.40
2019,06,19,06,42,9.60
2019,06,19,06,43,6.40
2019,06,19,06,44,3.20
2019,06,19,06,45,3.20
2019,06,19,06,46,1.60
2019,06,19,06,47,8.10
2019,06,19,06,48,9.60
2019,06,19,06,49,4.80
2019,06,19,06,50,3.20
2019,06,19,06,51,1.60
2019,06,19,06,52,3.20
2019,06,19,06,53,3.20
2019,06,19,06,54,1.60
2019,06,19,06,55,3.20
2019,06,19,06,56,4.80
2019,06,19,06,57,4.80
2019,06,19,06,58,4.80
2019,06,19,06,59,6.40
2019,06,19,07,00,6.40
2019,06,19,07,01,4.80
2019,06,19,07,02,4.80
2019,06,19,07,03,11.30
2019,06,19,07,04,11.30
2019,06,19,07,05,4.80
2019,06,19,07,06,4.80
2019,06,19,07,07,3.20
2019,06,19,07,08,3.20
2019,06,19,07,09,3.20
2019,06,19,07,10,3.20
2019,06,19,07,11,6.40
2019,06,19,07,12,11.30
2019,06,19,07,13,11.30
2019,06,19,07,14,8.10
2019,06,19,07,15,3.20
2019,06,19,07,16,3.20
2019,06,19,07,17,4.80
2019,06,19,07,18,9.60
2019,06,19,07,19,11.30
2019,06,19,07,20,9.60
2019,06,19,07,21,6.40
2019,06,19,07,22,8.10
2019,06,19,07,23,11.30
2019,06,19,07,24,9.60
2019,06,19,07,25,6.40
2019,06,19,07,26,6.40
2019,06,19,07,27,3.20
2019,06,19,07,28,1.60
2019,06,19,07,29,6.40
2019,06,19,07,30,4.80
2019,06,19,07,31,6.40
2019,06,19,07,32,9.60
2019,06,19,07,33,4.80
2019,06,19,07,34,3.20
2019,06,19,07,35,9.60
2019,06,19,07,36,16.10
2019,06,19,07,37,12.90
2019,06,19,07,38,12.90
2019,06,19,07,39,14.50
2019,06,19,07,40,4.80
2019,06,19,07,41,4.80
2019,06,19,07,42,11.30
2019,06,19,07,43,8.10
2019,06,19,07,44,9.60
2019,06,19,07,45,14.50
2019,06,19,07,46,19.30
2019,06,19,07,47,16.10
2019,06,19,07,48,19.30
2019,06,19,07,49,11.30
2019,06,19,07,50,8.10
2019,06,19,07,51,4.80
2019,06,19,07,52,4.80
2019,06,19,07,53,4.80
2019,06,19,07,54,11.30
2019,06,19,07,55,8.10
2019,06,19,07,56,17.70
2019,06,19,07,57,16.10
2019,06,19,07,58,24.20
2019,06,19,07,59,22.50
2019,06,19,08,00,16.10
2019,06,19,08,01,9.60
2019,06,19,08,02,25.70
2019,06,19,08,03,16.10
2019,06,19,08,04,11.30
2019,06,19,08,05,14.50
2019,06,19,08,06,24.20
2019,06,19,08,07,17.70
2019,06,19,08,08,19.30
2019,06,19,08,09,24.20
2019,06,19,08,10,16.10
2019,06,19,08,11,37.00
2019,06,19,08,12,35.40
2019,06,19,08,13,16.10
2019,06,19,08,14,19.30
2019,06,19,08,15,14.50
2019,06,19,08,16,6.40
2019,06,19,08,17,14.50
2019,06,19,08,18,22.50
2019,06,19,08,19,29.00
2019,06,19,08,20,24.20
2019,06,19,08,21,17.70
2019,06,19,08,22,30.60
2019,06,19,08,23,29.00
2019,06,19,08,24,25.70
2019,06,19,08,25,20.90
2019,06,19,08,26,41.80
2019,06,19,08,27,49.90
2019,06,19,08,28,20.90
2019,06,19,08,29,25.70
2019,06,19,08,30,17.70
2019,06,19,08,31,17.70
2019,06,19,08,32,9.60
2019,06,19,08,33,25.70
2019,06,19,08,34,25.70
2019,06,19,08,35,14.50
2019,06,19,08,36,19.30
2019,06,19,08,37,17.70
2019,06,19,08,38,29.00
2019,06,19,08,39,29.00
2019,06,19,08,40,43.50
2019,06,19,08,41,29.00
2019,06,19,08,42,29.00
2019,06,19,08,43,17.70
2019,06,19,08,44,29.00
2019,06,19,08,45,17.70
2019,06,19,08,46,20.90
2019,06,19,08,47,25.70
2019,06,19,08,48,14.50
2019,06,19,08,49,22.50
2019,06,19,08,50,20.90
2019,06,19,08,51,24.20
2019,06,19,08,52,22.50
2019,06,19,08,53,14.50
2019,06,19,08,54,20.90
2019,06,19,08,55,22.50
2019,06,19,08,56,19.30
2019,06,19,08,57,12.90
2019,06,19,08,58,12.90
2019,06,19,08,59,19.30
2019,06,19,09,00,22.50
2019,06,19,09,01,25.70
2019,06,19,09,02,19.30
2019,06,19,09,03,20.90
2019,06,19,09,04,22.50
2019,06,19,09,05,16.10
2019,06,19,09,06,16.10
2019,06,19,09,07,37.00
2019,06,19,09,08,29.00
2019,06,19,09,09,12.90
2019,06,19,09,10,12.90
2019,06,19,09,11,12.90
2019,06,19,09,12,30.60
2019,06,19,09,13,32.20
2019,06,19,09,14,17.70
2019,06,19,09,15,16.10
2019,06,19,09,16,20.90
2019,06,19,09,17,22.50
2019,06,19,09,18,16.10
2019,06,19,09,19,8.10
2019,06,19,09,20,19.30
2019,06,19,09,21,25.70
2019,06,19,09,22,19.30
2019,06,19,09,23,35.40
2019,06,19,09,24,19.30
2019,06,19,09,25,29.00
2019,06,19,09,26,30.60
2019,06,19,09,27,24.20
2019,06,19,09,28,27.40
2019,06,19,09,29,32.20
2019,06,19,09,30,25.70
2019,06,19,09,31,30.60
2019,06,19,09,32,14.50
2019,06,19,09,33,35.40
2019,06,19,09,34,16.10
2019,06,19,09,35,16.10
2019,06,19,09,36,12.90
2019,06,19,09,37,20.90
2019,06,19,09,38,22.50
2019,06,19,09,39,14.50
2019,06,19,09,40,20.90
2019,06,19,09,41,19.30
2019,06,19,09,42,24.20
2019,06,19,09,43,20.90
2019,06,19,09,44,27.40
2019,06,19,09,45,19.30
2019,06,19,09,46,19.30
2019,06,19,09,47,22.50
2019,06,19,09,48,22.50
2019,06,19,09,49,32.20
2019,06,19,09,50,22.50
2019,06,19,09,51,20.90
2019,06,19,09,52,27.40
2019,06,19,09,53,16.10
2019,06,19,09,54,24.20
2019,06,19,09,55,29.00
2019,06,19,09,56,25.70
2019,06,19,09,57,16.10
2019,06,19,09,58,24.20
2019,06,19,09,59,27.40
2019,06,19,10,00,22.50
2019,06,19,10,01,22.50
2019,06,19,10,02,12.90
2019,06,19,10,03,22.50
2019,06,19,10,04,20.90
2019,06,19,10,05,24.20
2019,06,19,10,06,32.20
2019,06,19,10,07,40.20
2019,06,19,10,08,20.90
2019,06,19,10,09,30.60
2019,06,19,10,10,22.50
2019,06,19,10,11,22.50
2019,06,19,10,12,6.40
2019,06,19,10,13,4.80
2019,06,19,10,14,4.80
2019,06,19,10,15,17.70
2019,06,19,10,16,19.30
2019,06,19,10,17,19.30
2019,06,19,10,18,29.00
2019,06,19,10,19,19.30
2019,06,19,10,20,16.10
2019,06,19,10,21,9.60
2019,06,19,10,22,12.90
2019,06,19,10,23,22.50
2019,06,19,10,24,17.70
2019,06,19,10,25,16.10
2019,06,19,10,26,16.10
2019,06,19,10,27,12.90
2019,06,19,10,28,24.20
2019,06,19,10,29,24.20
2019,06,19,10,30,27.40
2019,06,19,10,31,24.20
2019,06,19,10,32,17.70
2019,06,19,10,33,14.50
2019,06,19,10,34,11.30
2019,06,19,10,35,20.90
2019,06,19,10,36,27.40
2019,06,19,10,37,14.50
2019,06,19,10,38,19.30
2019,06,19,10,39,20.90
2019,06,19,10,40,22.50
2019,06,19,10,41,20.90
2019,06,19,10,42,16.10
2019,06,19,10,43,22.50
2019,06,19,10,44,30.60
2019,06,19,10,45,20.90
2019,06,19,10,46,12.90
2019,06,19,10,47,25.70
2019,06,19,10,48,24.20
2019,06,19,10,49,29.00
2019,06,19,10,50,19.30
2019,06,19,10,51,22.50
2019,06,19,10,52,12.90
2019,06,19,10,53,24.20
2019,06,19,10,54,17.70
2019,06,19,10,55,14.50
2019,06,19,10,56,17.70
2019,06,19,10,57,38.60
2019,06,19,10,58,24.20
2019,06,19,10,59,12.90
2019,06,19,11,00,17.70
2019,06,19,11,01,16.10
2019,06,19,11,02,14.50
2019,06,19,11,03,16.10
2019,06,19,11,04,16.10
2019,06,19,11,05,19.30
2019,06,19,11,06,19.30
2019,06,19,11,07,27.40
2019,06,19,11,08,35.40
2019,06,19,11,09,17.70
2019,06,19,11,10,20.90
2019,06,19,11,11,24.20
2019,06,19,11,12,20.90
2019,06,19,11,13,19.30
2019,06,19,11,14,16.10
2019,06,19,11,15,6.40
2019,06,19,11,16,11.30
2019,06,19,11,17,12.90
2019,06,19,11,18,16.10
2019,06,19,11,19,20.90
2019,06,19,11,20,30.60
2019,06,19,11,21,11.30
2019,06,19,11,22,16.10
2019,06,19,11,23,19.30
2019,06,19,11,24,17.70
2019,06,19,11,25,19.30
2019,06,19,11,26,20.90
2019,06,19,11,27,14.50
2019,06,19,11,28,20.90
2019,06,19,11,29,19.30
2019,06,19,11,30,22.50
2019,06,19,11,31,17.70
2019,06,19,11,32,19.30
2019,06,19,11,33,17.70
2019,06,19,11,34,17.70
2019,06,19,11,35,8.10
2019,06,19,11,36,24.20
2019,06,19,11,37,24.20
2019,06,19,11,38,12.90
2019,06,19,11,39,19.30
2019,06,19,11,40,24.20
2019,06,19,11,41,16.10
2019,06,19,11,42,16.10
2019,06,19,11,43,19.30
2019,06,19,11,44,14.50
2019,06,19,11,45,6.40
2019,06,19,11,46,19.30
2019,06,19,11,47,30.60
2019,06,19,11,48,25.70
2019,06,19,11,49,8.10
2019,06,19,11,50,24.20
2019,06,19,11,51,24.20
2019,06,19,11,52,20.90
2019,06,19,11,53,11.30
2019,06,19,11,54,19.30
2019,06,19,11,55,19.30
2019,06,19,11,56,9.60
2019,06,19,11,57,20.90
2019,06,19,11,58,22.50
2019,06,19,11,59,25.70
2019,06,19,12,00,22.50
2019,06,19,12,01,12.90
2019,06,19,12,02,8.10
2019,06,19,12,03,9.60
2019,06,19,12,04,8.10
2019,06,19,12,05,17.70
2019,06,19,12,06,19.30
2019,06,19,12,07,35.40
2019,06,19,12,08,32.20
2019,06,19,12,09,20.90
2019,06,19,12,10,11.30
2019,06,19,12,11,20.90
2019,06,19,12,12,30.60
2019,06,19,12,13,29.00
2019,06,19,12,14,25.70
2019,06,19,12,15,35.40
2019,06,19,12,16,24.20
2019,06,19,12,17,19.30
2019,06,19,12,18,16.10
2019,06,19,12,19,14.50
2019,06,19,12,20,14.50
2019,06,19,12,21,20.90
2019,06,19,12,22,17.70
2019,06,19,12,23,14.50
2019,06,19,12,24,4.80
2019,06,19,12,25,16.10
2019,06,19,12,26,12.90
2019,06,19,12,27,14.50
2019,06,19,12,28,11.30
2019,06,19,12,29,17.70
2019,06,19,12,30,22.50
2019,06,19,12,31,24.20
2019,06,19,12,32,11.30
2019,06,19,12,33,17.70
2019,06,19,12,34,17.70
2019,06,19,12,35,11.30
2019,06,19,12,36,9.60
2019,06,19,12,37,16.10
2019,06,19,12,38,4.80
2019,06,19,12,39,17.70
2019,06,19,12,40,12.90
2019,06,19,12,41,12.90
2019,06,19,12,42,8.10
2019,06,19,12,43,9.60
2019,06,19,12,44,12.90
2019,06,19,12,45,11.30
2019,06,19,12,46,20.90
2019,06,19,12,47,24.20
2019,06,19,12,48,32.20
2019,06,19,12,49,17.70
2019,06,19,12,50,24.20
2019,06,19,12,51,19.30
2019,06,19,12,52,30.60
2019,06,19,12,53,29.00
2019,06,19,12,54,19.30
2019,06,19,12,55,12.90
2019,06,19,12,56,17.70
2019,06,19,12,57,20.90
2019,06,19,12,58,14.50
2019,06,19,12,59,20.90
2019,06,19,13,00,29.00
2019,06,19,13,01,8.10
2019,06,19,13,02,12.90
2019,06,19,13,03,20.90
2019,06,19,13,04,16.10
2019,06,19,13,05,6.40
2019,06,19,13,06,19.30
2019,06,19,13,07,19.30
2019,06,19,13,08,16.10
2019,06,19,13,09,14.50
2019,06,19,13,10,12.90
2019,06,19,13,11,16.10
2019,06,19,13,12,19.30
2019,06,19,13,13,22.50
2019,06,19,13,14,8.10
2019,06,19,13,15,12.90
2019,06,19,13,16,17.70
2019,06,19,13,17,20.90
2019,06,19,13,18,12.90
2019,06,19,13,19,16.10
2019,06,19,13,20,17.70
2019,06,19,13,21,8.10
2019,06,19,13,22,17.70
2019,06,19,13,23,14.50
2019,06,19,13,24,9.60
2019,06,19,13,25,4.80
2019,06,19,13,26,4.80
2019,06,19,13,27,6.40
2019,06,19,13,28,20.90
2019,06,19,13,29,17.70
2019,06,19,13,30,8.10
2019,06,19,13,31,30.60
2019,06,19,13,32,24.20
2019,06,19,13,33,8.10
2019,06,19,13,34,9.60
2019,06,19,13,35,19.30
2019,06,19,13,36,16.10
2019,06,19,13,37,22.50
2019,06,19,13,38,24.20
2019,06,19,13,39,12.90
2019,06,19,13,40,20.90
2019,06,19,13,41,14.50
2019,06,19,13,42,20.90
2019,06,19,13,43,20.90
2019,06,19,13,44,4.80
2019,06,19,13,45,12.90
2019,06,19,13,46,27.40
2019,06,19,13,47,30.60
2019,06,19,13,48,20.90
2019,06,19,13,49,19.30
2019,06,19,13,50,12.90
2019,06,19,13,51,22.50
2019,06,19,13,52,22.50
2019,06,19,13,53,29.00
2019,06,19,13,54,30.60
2019,06,19,13,55,19.30
2019,06,19,13,56,19.30
2019,06,19,13,57,22.50
2019,06,19,13,58,14.50
2019,06,19,13,59,14.50
2019,06,19,14,00,4.80
2019,06,19,14,01,8.10
2019,06,19,14,02,16.10
2019,06,19,14,03,12.90
2019,06,19,14,04,29.00
2019,06,19,14,05,17.70
2019,06,19,14,06,19.30
2019,06,19,14,07,12.90
2019,06,19,14,08,32.20
2019,06,19,14,09,19.30
2019,06,19,14,10,19.30
2019,06,19,14,11,22.50
2019,06,19,14,12,8.10
2019,06,19,14,13,29.00
2019,06,19,14,14,29.00
2019,06,19,14,15,16.10
2019,06,19,14,16,17.70
2019,06,19,14,17,19.30
2019,06,19,14,18,35.40
2019,06,19,14,19,29.00
2019,06,19,14,20,40.20
2019,06,19,14,21,12.90
2019,06,19,14,22,14.50
2019,06,19,14,23,11.30
2019,06,19,14,24,12.90
2019,06,19,14,25,16.10
2019,06,19,14,26,14.50
2019,06,19,14,27,17.70
2019,06,19,14,28,17.70
2019,06,19,14,29,22.50
2019,06,19,14,30,29.00
2019,06,19,14,31,22.50
2019,06,19,14,32,16.10
2019,06,19,14,33,11.30
2019,06,19,14,34,8.10
2019,06,19,14,35,14.50
2019,06,19,14,36,14.50
2019,06,19,14,37,8.10
2019,06,19,14,38,8.10
2019,06,19,14,39,6.40
2019,06,19,14,40,9.60
2019,06,19,14,41,14.50
2019,06,19,14,42,11.30
2019,06,19,14,43,16.10
2019,06,19,14,44,14.50
2019,06,19,14,45,19.30
2019,06,19,14,46,19.30
2019,06,19,14,47,17.70
2019,06,19,14,48,20.90
2019,06,19,14,49,12.90
2019,06,19,14,50,27.40
2019,06,19,14,51,19.30
2019,06,19,14,52,25.70
2019,06,19,14,53,17.70
2019,06,19,14,54,11.30
2019,06,19,14,55,12.90
2019,06,19,14,56,8.10
2019,06,19,14,57,9.60
2019,06,19,14,58,9.60
2019,06,19,14,59,14.50
2019,06,19,15,00,12.90
2019,06,19,15,01,11.30
2019,06,19,15,02,11.30
2019,06,19,15,03,14.50
2019,06,19,15,04,17.70
2019,06,19,15,05,11.30
2019,06,19,15,06,11.30
2019,06,19,15,07,6.40
2019,06,19,15,08,8.10
2019,06,19,15,09,8.10
2019,06,19,15,10,22.50
2019,06,19,15,11,30.60
2019,06,19,15,12,12.90
2019,06,19,15,13,11.30
2019,06,19,15,14,25.70
2019,06,19,15,15,11.30
2019,06,19,15,16,12.90
2019,06,19,15,17,6.40
2019,06,19,15,18,12.90
2019,06,19,15,19,14.50
2019,06,19,15,20,14.50
2019,06,19,15,21,4.80
2019,06,19,15,22,16.10
2019,06,19,15,23,16.10
2019,06,19,15,24,14.50
2019,06,19,15,25,12.90
2019,06,19,15,26,19.30
2019,06,19,15,27,17.70
2019,06,19,15,28,29.00
2019,06,19,15,29,16.10
2019,06,19,15,30,19.30
2019,06,19,15,31,17.70
2019,06,19,15,32,16.10
2019,06,19,15,33,14.50
2019,06,19,15,34,16.10
2019,06,19,15,35,14.50
2019,06,19,15,36,12.90
2019,06,19,15,37,11.30
2019,06,19,15,38,16.10
2019,06,19,15,39,14.50
2019,06,19,15,40,9.60
2019,06,19,15,41,22.50
2019,06,19,15,42,17.70
2019,06,19,15,43,25.70
2019,06,19,15,44,11.30
2019,06,19,15,45,11.30
2019,06,19,15,46,12.90
2019,06,19,15,47,29.00
2019,06,19,15,48,14.50
2019,06,19,15,49,11.30
2019,06,19,15,50,12.90
2019,06,19,15,51,14.50
2019,06,19,15,52,16.10
2019,06,19,15,53,8.10
2019,06,19,15,54,12.90
2019,06,19,15,55,17.70
2019,06,19,15,56,19.30
2019,06,19,15,57,17.70
2019,06,19,15,58,24.20
2019,06,19,15,59,8.10
2019,06,19,16,00,9.60
2019,06,19,16,01,16.10
2019,06,19,16,02,16.10
2019,06,19,16,03,9.60
2019,06,19,16,04,6.40
2019,06,19,16,05,14.50
2019,06,19,16,06,11.30
2019,06,19,16,07,17.70
2019,06,19,16,08,16.10
2019,06,19,16,09,6.40
2019,06,19,16,10,6.40
2019,06,19,16,11,9.60
2019,06,19,16,12,14.50
2019,06,19,16,13,16.10
2019,06,19,16,14,24.20
2019,06,19,16,15,17.70
2019,06,19,16,16,12.90
2019,06,19,16,17,12.90
2019,06,19,16,18,25.70
2019,06,19,16,19,20.90
2019,06,19,16,20,22.50
2019,06,19,16,21,30.60
2019,06,19,16,22,16.10
2019,06,19,16,23,12.90
2019,06,19,16,24,12.90
2019,06,19,16,25,14.50
2019,06,19,16,26,27.40
2019,06,19,16,27,19.30
2019,06,19,16,28,12.90
2019,06,19,16,29,11.30
2019,06,19,16,30,17.70
2019,06,19,16,31,32.20
2019,06,19,16,32,27.40
2019,06,19,16,33,20.90
2019,06,19,16,34,16.10
2019,06,19,16,35,19.30
2019,06,19,16,36,16.10
2019,06,19,16,37,32.20
2019,06,19,16,38,27.40
2019,06,19,16,39,16.10
2019,06,19,16,40,30.60
2019,06,19,16,41,29.00
2019,06,19,16,42,35.40
2019,06,19,16,43,16.10
2019,06,19,16,44,20.90
2019,06,19,16,45,22.50
2019,06,19,16,46,17.70
2019,06,19,16,47,14.50
2019,06,19,16,48,17.70
2019,06,19,16,49,22.50
2019,06,19,16,50,14.50
2019,06,19,16,51,12.90
2019,06,19,16,52,22.50
2019,06,19,16,53,12.90
2019,06,19,16,54,25.70
2019,06,19,16,55,25.70
2019,06,19,16,56,20.90
2019,06,19,16,57,19.30
2019,06,19,16,58,11.30
2019,06,19,16,59,19.30
2019,06,19,17,00,33.80
2019,06,19,17,01,17.70
2019,06,19,17,02,20.90
2019,06,19,17,03,20.90
2019,06,19,17,04,19.30
2019,06,19,17,05,11.30
2019,06,19,17,06,12.90
2019,06,19,17,07,6.40
2019,06,19,17,08,17.70
2019,06,19,17,09,24.20
2019,06,19,17,10,9.60
2019,06,19,17,11,11.30
2019,06,19,17,12,6.40
2019,06,19,17,13,11.30
2019,06,19,17,14,8.10
2019,06,19,17,15,20.90
2019,06,19,17,16,16.10
2019,06,19,17,17,17.70
2019,06,19,17,18,16.10
2019,06,19,17,19,16.10
2019,06,19,17,20,4.80
2019,06,19,17,21,17.70
2019,06,19,17,22,11.30
2019,06,19,17,23,8.10
2019,06,19,17,24,22.50
2019,06,19,17,25,24.20
2019,06,19,17,26,12.90
2019,06,19,17,27,16.10
2019,06,19,17,28,14.50
2019,06,19,17,29,12.90
2019,06,19,17,30,19.30
2019,06,19,17,31,9.60
2019,06,19,17,32,14.50
2019,06,19,17,33,20.90
2019,06,19,17,34,22.50